Location: Hillsman's Observatory
(38.8566°N, 93.9398°W)
Time: 08:08:46
(UTC-06:00)

N. Korean satellite - Visible Passes

Search period start: 21 November 2017 00:00
Search period end: 01 December 2017 00:00
Orbit: 460 x 514 km, 97.2° (Epoch: 20 November)

Date Brightness Start Highest point End Pass type
(mag) Time Alt. Az. Time Alt. Az. Time Alt. Az.
21 Nov 10.0 06:03:48 10° ENE 06:05:52 14° E 06:07:55 10° SE visible
21 Nov 6.4 18:10:41 10° SSE 18:14:09 70° ENE 18:17:42 10° N visible
22 Nov 7.2 17:47:35 10° SE 17:50:45 32° ENE 17:53:58 10° N visible
22 Nov 9.9 19:22:48 10° WSW 19:24:24 13° W 19:26:00 10° WNW visible
23 Nov 8.0 17:25:05 10° ESE 17:27:26 17° ENE 17:29:49 10° NNE visible
23 Nov 8.9 18:57:49 10° SSW 19:00:45 25° W 19:03:45 10° NW visible
24 Nov 9.2 06:25:49 10° NE 06:29:04 27° E 06:32:17 10° SSE visible
24 Nov 7.3 18:33:45 10° S 18:37:11 52° W 18:40:42 10° NNW visible
25 Nov 10.0 06:03:22 10° ENE 06:05:26 14° E 06:07:30 10° SE visible
25 Nov 6.4 18:10:11 10° SSE 18:13:42 70° ENE 18:17:16 10° N visible
26 Nov 7.2 17:47:05 10° SE 17:50:17 33° ENE 17:53:33 10° N visible
26 Nov 9.9 19:22:14 10° WSW 19:23:55 13° W 19:25:37 10° WNW visible
27 Nov 8.1 17:24:33 10° ESE 17:26:57 17° ENE 17:29:23 10° NNE visible
27 Nov 8.9 18:57:16 10° SSW 19:00:15 25° W 19:03:18 10° NW visible
28 Nov 9.2 06:25:21 10° NE 06:28:36 27° E 06:31:48 10° SSE visible
28 Nov 7.3 18:33:12 10° S 18:36:41 53° W 18:40:14 10° NNW visible
29 Nov 10.0 06:02:53 10° ENE 06:04:57 14° E 06:06:59 10° SE visible
29 Nov 6.4 18:09:38 10° SSE 18:13:10 70° ENE 18:16:48 10° N visible
30 Nov 7.2 17:46:31 10° SE 17:49:45 33° ENE 17:53:03 10° N visible
30 Nov 9.9 19:21:37 10° WSW 19:23:23 13° W 19:25:11 10° WNW visible
